{"data":{"norad_id":63602,"epoch":"2026-09-21T22:29:25.287936Z","epoch_age_seconds":83511,"freshness":"FRESH","line1":"1 63602U 25078D   26264.93709824  .00000003  00000+0  66889-4 0  9994","line2":"2 63602  99.6978 270.7680 0001040  90.5307 269.5950 13.57246289 70657","mean_motion":13.57246289,"eccentricity":0.000104,"inclination_deg":99.6978,"raan_deg":270.768,"arg_perigee_deg":90.5307,"mean_anomaly_deg":269.595,"bstar":6.6889e-5,"rev_number":7065,"period_min":106.09717717931,"perigee_km":1044.9445276286,"apogee_km":1046.4886891792,"semimajor_km":7423.8536084039,"source":"CELESTRAK","updated_at":"2026-09-22T09:00:29.238730Z"}}